JST221 YMML-NZQN

Flight info

Callsign JST221
Flight time N/A
Altitude 35000
Route CORRS1 CORRS Y260 ECKHO L508 OMKIN P766 ADKOS UBDAM6B
Aircraft A320/M-SDE3FGHIRWY/LB1

Departure

Time N/A
Airport Melbourne Airport (YMML)

Arrival

Time 2026-05-01 13:07
Airport Queenstown Airport (NZQN)
Time Latitude Longitude Altitude Speed Heading
2026-05-01 12:52 -44.87088 168.09253 20621 ft 445 kts 45°
2026-05-01 12:53 -44.82895 168.15651 20621 ft 445 kts 45°
2026-05-01 12:53 -44.80785 168.18866 20620 ft 444 kts 45°
2026-05-01 12:53 -44.78693 168.22065 20620 ft 444 kts 46°
2026-05-01 12:54 -44.76607 168.25269 20620 ft 444 kts 46°
2026-05-01 12:54 -44.73384 168.32604 20612 ft 447 kts 74°
2026-05-01 12:54 -44.72987 168.36928 20605 ft 447 kts 92°
2026-05-01 12:55 -44.74836 168.45056 20595 ft 443 kts 127°
2026-05-01 12:55 -44.76904 168.48246 20587 ft 439 kts 142°
2026-05-01 12:55 -44.79431 168.50604 20534 ft 435 kts 155°
2026-05-01 12:56 -44.82219 168.52155 19509 ft 428 kts 168°
2026-05-01 12:56 -44.85153 168.52668 17883 ft 424 kts 184°
2026-05-01 12:56 -44.88043 168.52134 16437 ft 415 kts 197°
2026-05-01 12:56 -44.90763 168.50900 15115 ft 408 kts 201°
2026-05-01 12:57 -44.93354 168.49390 13859 ft 399 kts 211°
2026-05-01 12:57 -44.97358 168.44453 11769 ft 369 kts 236°
2026-05-01 12:57 -44.98600 168.41435 11355 ft 341 kts 245°
2026-05-01 12:58 -44.99614 168.38560 11192 ft 314 kts 245°
2026-05-01 12:58 -45.00554 168.35908 11066 ft 291 kts 245°
2026-05-01 12:58 -45.01433 168.33430 11006 ft 278 kts 245°
2026-05-01 12:59 -45.03412 168.28834 10428 ft 274 kts 229°
2026-05-01 12:59 -45.04851 168.27040 10308 ft 279 kts 217°
2026-05-01 12:59 -45.08487 168.25066 10052 ft 286 kts 190°
2026-05-01 13:00 -45.12477 168.25752 9286 ft 299 kts 161°
2026-05-01 13:00 -45.14278 168.27239 8910 ft 303 kts 141°
2026-05-01 13:01 -45.16383 168.32331 8132 ft 305 kts 99°
2026-05-01 13:01 -45.16387 168.35312 7818 ft 302 kts 77°
2026-05-01 13:01 -45.14778 168.40645 7047 ft 291 kts 59°
2026-05-01 13:02 -45.13828 168.43176 6402 ft 290 kts 59°
2026-05-01 13:07 -45.01691 168.75532 1174 ft 20 kts 77°
2026-05-01 13:07 -45.01682 168.75653 1170 ft 13 kts 95°
2026-05-01 13:07 -45.01741 168.75697 1169 ft 9 kts 217°
2026-05-01 13:08 -45.01767 168.75608 1174 ft 12 kts 255°
2026-05-01 13:08 -45.01790 168.75473 1174 ft 15 kts 255°
2026-05-01 13:08 -45.01813 168.75313 1169 ft 19 kts 257°
2026-05-01 13:08 -45.01847 168.75111 1174 ft 23 kts 257°
2026-05-01 13:09 -45.01883 168.74878 1171 ft 25 kts 257°
2026-05-01 13:09 -45.01921 168.74628 1174 ft 28 kts 257°
2026-05-01 13:09 -45.01964 168.74360 1174 ft 20 kts 256°
2026-05-01 13:09 -45.02004 168.74236 1169 ft 10 kts 189°
2026-05-01 13:10 -45.02097 168.74273 1173 ft 14 kts 160°
2026-05-01 13:10 -45.02144 168.74234 1172 ft 9 kts 292°
2026-05-01 13:10 -45.02152 168.74130 1174 ft 10 kts 249°
2026-05-01 13:10 -45.02162 168.74096 1170 ft 0 kts 251°